Location: Shenandoah County Park
(38.9356°N, 78.4524°W)
Time: 15:23:20
(UTC-05:00)

Vanguard 2 Rocket - Pass Details

Date: 09 December 2023
Orbit: 555 x 3309 km, 32.9° (Epoch: 03 March)

Event Time Altitude Azimuth Distance (km) Brightness Sun altitude
Rises 14:50:05 0° 254° (WSW) 5,923 12.0 17.3°
Reaches altitude 10° 14:53:29 10° 253° (WSW) 5,207 11.9 16.9°
Maximum altitude 15:10:18 72° 173° (S) 3,331 10.2 14.7°
Drops below altitude 10° 15:30:21 10° 95° (E) 6,047 10.7 11.9°
Sets 15:34:39 0° 93° (E) 6,877 11.0 11.3°
